Location: Cactus School
(34.5700°N, 118.0931°W)
Time: 08:52:13
(UTC-07:00)

Vanguard 1 Rocket - Pass Details

Date: 21 April 2024
Orbit: 650 x 4220 km, 34.3° (Epoch: 22 May)

Event Time Altitude Azimuth Distance (km) Brightness Sun altitude
Exits shadow 02:25:54 10° 158° (SSE) 6,966 11.5 -38.2°
Drops below altitude 10° 02:26:10 10° 158° (SSE) 7,014 11.6 -38.2°
Sets 02:33:26 0° 149° (SSE) 8,336 12.1 -37.4°
